Location: Canet
(43.3261°N, 5.3723°E)
Time: 19:19:33
(UTC+00:00)

Cosmos 1680 Rocket - Pass Details

Date: 24 January 2021
Orbit: 761 x 780 km, 74.1° (Epoch: 08 March)

Event Time Altitude Azimuth Distance (km) Brightness Sun altitude
Rises 17:34:25 0° 344° (NNW) 3,245 6.8 -10.1°
Reaches altitude 10° 17:36:53 10° 350° (N) 2,312 5.9 -10.5°
Maximum altitude 17:41:58 49° 65° (ENE) 978 3.7 -11.4°
Drops below altitude 10° 17:46:59 10° 140° (SE) 2,288 5.7 -12.3°
Sets 17:49:25 0° 146° (SE) 3,209 6.5 -12.7°
